TimeEDT,TemperatureF,Dew PointF,Humidity,Sea Level PressureIn,VisibilityMPH,Wind Direction,Wind SpeedMPH,Gust SpeedMPH,PrecipitationIn,Events,Conditions,WindDirDegrees,DateUTC
12:08 AM,69.8,69.8,100,30.22,9.0,ENE,3.5,-,0.01,Rain,Light Rain,70,2013-07-04 04:08:00
12:19 AM,69.8,69.8,100,30.22,9.0,East,5.8,-,0.02,Rain,Rain,100,2013-07-04 04:19:00
12:42 AM,69.8,69.8,100,30.21,10.0,East,6.9,-,0.04,Rain,Light Rain,80,2013-07-04 04:42:00
12:56 AM,70.0,70.0,100,30.18,10.0,East,5.8,-,0.04,Rain,Light Rain,80,2013-07-04 04:56:00
1:39 AM,69.8,69.8,100,30.22,1.8,ESE,3.5,-,0.06,Rain-Thunderstorm,Heavy Rain,120,2013-07-04 05:39:00
1:52 AM,69.8,69.8,100,30.21,1.2,ESE,5.8,-,0.17,Rain-Thunderstorm,Heavy Rain,110,2013-07-04 05:52:00
1:56 AM,70.0,69.1,97,30.18,1.5,East,5.8,-,0.21,Rain-Thunderstorm,Heavy Rain,80,2013-07-04 05:56:00
2:00 AM,69.8,69.8,100,30.20,3.0,East,5.8,-,0.04,Rain,Heavy Rain,80,2013-07-04 06:00:00
2:34 AM,69.8,69.8,100,30.19,8.0,NNE,3.5,-,0.31,Rain,Light Rain,20,2013-07-04 06:34:00
2:56 AM,70.0,70.0,100,30.16,10.0,East,3.5,-,0.36,Rain,Light Rain,80,2013-07-04 06:56:00
3:23 AM,69.8,69.8,100,30.19,10.0,ENE,5.8,-,0.01,Rain,Light Rain,70,2013-07-04 07:23:00
3:42 AM,69.8,69.8,100,30.17,9.0,NE,5.8,-,0.03,Rain,Rain,40,2013-07-04 07:42:00
3:56 AM,69.1,68.0,96,30.15,10.0,NE,5.8,-,0.03,,Overcast,50,2013-07-04 07:56:00
4:05 AM,69.8,68.0,94,30.17,10.0,NE,5.8,-,N/A,,Overcast,50,2013-07-04 08:05:00
4:56 AM,69.1,68.0,96,30.15,10.0,NE,3.5,-,N/A,,Overcast,50,2013-07-04 08:56:00
5:05 AM,69.8,68.0,94,30.17,10.0,Calm,Calm,-,0.00,Rain,Light Rain,0,2013-07-04 09:05:00
5:39 AM,69.8,68.0,94,30.20,2.5,SW,3.5,-,0.04,Rain,Heavy Rain,220,2013-07-04 09:39:00
5:48 AM,69.8,69.8,100,30.20,5.0,Calm,Calm,-,0.07,Rain,Light Rain,0,2013-07-04 09:48:00
5:56 AM,69.1,68.0,96,30.17,10.0,Calm,Calm,-,0.09,Rain,Light Rain,0,2013-07-04 09:56:00
6:39 AM,69.8,69.8,100,30.20,10.0,Calm,Calm,-,0.06,,Overcast,0,2013-07-04 10:39:00
6:56 AM,69.1,68.0,96,30.18,10.0,ENE,5.8,-,0.06,,Overcast,60,2013-07-04 10:56:00
7:56 AM,69.1,69.1,100,30.19,10.0,ENE,9.2,-,0.00,,Overcast,70,2013-07-04 11:56:00
8:21 AM,69.8,69.8,100,30.21,2.5,East,10.4,-,0.01,Rain,Heavy Rain,80,2013-07-04 12:21:00
8:29 AM,69.8,69.8,100,30.21,1.0,ENE,9.2,-,0.04,Rain,Heavy Rain,70,2013-07-04 12:29:00
8:38 AM,69.8,69.8,100,30.21,3.0,ENE,9.2,-,0.07,Rain,Light Rain,70,2013-07-04 12:38:00
8:54 AM,69.8,69.8,100,30.21,5.0,ENE,9.2,-,0.13,Rain,Light Rain,60,2013-07-04 12:54:00
8:56 AM,70.0,69.1,97,30.19,7.0,ENE,8.1,-,0.13,Rain,Light Rain,60,2013-07-04 12:56:00
9:09 AM,69.8,69.8,100,30.21,10.0,East,8.1,-,0.05,Rain,Light Rain,80,2013-07-04 13:09:00
9:22 AM,71.6,69.8,94,30.22,4.0,ENE,9.2,-,0.08,Rain,Heavy Rain,70,2013-07-04 13:22:00
9:44 AM,71.6,69.8,94,30.21,4.0,ENE,4.6,-,0.14,Rain,Heavy Rain,70,2013-07-04 13:44:00
9:56 AM,72.0,71.1,97,30.19,5.0,East,5.8,-,0.17,Rain,Rain,80,2013-07-04 13:56:00
10:56 AM,73.9,73.0,97,30.19,6.0,Calm,Calm,-,0.09,Rain,Rain,0,2013-07-04 14:56:00
11:03 AM,73.4,73.4,100,30.21,8.0,SSW,3.5,-,0.01,Rain,Light Rain,200,2013-07-04 15:03:00
11:18 AM,75.2,73.4,94,30.20,10.0,SSE,6.9,-,0.02,,Mostly Cloudy,150,2013-07-04 15:18:00
11:48 AM,78.8,75.2,89,30.20,10.0,SE,6.9,-,0.02,,Mostly Cloudy,140,2013-07-04 15:48:00
11:56 AM,79.0,75.0,88,30.17,10.0,SSE,6.9,-,0.02,,Mostly Cloudy,150,2013-07-04 15:56:00
12:28 PM,80.6,73.4,79,30.19,10.0,SSE,3.5,-,0.00,,Overcast,160,2013-07-04 16:28:00
12:43 PM,80.6,73.4,79,30.18,10.0,SE,11.5,-,0.00,,Mostly Cloudy,140,2013-07-04 16:43:00
12:51 PM,80.6,73.4,79,30.17,10.0,ESE,10.4,-,0.00,,Mostly Cloudy,120,2013-07-04 16:51:00
12:56 PM,82.0,73.9,76,30.15,10.0,SE,8.1,16.1,0.00,Thunderstorm,Thunderstorm,140,2013-07-04 16:56:00
1:42 PM,80.6,73.4,79,30.16,10.0,ESE,10.4,19.6,0.01,Thunderstorm,Mostly Cloudy,110,2013-07-04 17:42:00
1:56 PM,80.1,73.0,79,30.14,10.0,ESE,10.4,19.6,0.01,Thunderstorm,Mostly Cloudy,110,2013-07-04 17:56:00
2:03 PM,78.8,73.4,83,30.16,10.0,East,10.4,-,N/A,,Mostly Cloudy,100,2013-07-04 18:03:00
2:10 PM,78.8,73.4,83,30.16,10.0,East,10.4,-,N/A,,Mostly Cloudy,100,2013-07-04 18:10:00
2:20 PM,80.6,73.4,79,30.16,10.0,East,6.9,-,N/A,,Mostly Cloudy,100,2013-07-04 18:20:00
2:56 PM,81.0,73.9,79,30.12,10.0,Variable,3.5,-,N/A,,Partly Cloudy,0,2013-07-04 18:56:00
3:27 PM,75.2,69.8,83,30.14,8.0,SE,10.4,20.7,0.00,Rain-Thunderstorm,Light Thunderstorms and Rain,130,2013-07-04 19:27:00
3:49 PM,77.0,71.6,83,30.15,10.0,ESE,3.5,-,0.01,,Scattered Clouds,120,2013-07-04 19:49:00
3:56 PM,77.0,72.0,84,30.13,10.0,ESE,4.6,-,0.01,,Scattered Clouds,120,2013-07-04 19:56:00
4:43 PM,78.8,75.2,89,30.15,10.0,Calm,Calm,-,N/A,Thunderstorm,Mostly Cloudy,0,2013-07-04 20:43:00
4:56 PM,73.9,66.0,76,30.15,10.0,South,17.3,33.4,0.00,Rain-Thunderstorm,Light Rain,190,2013-07-04 20:56:00
5:03 PM,71.6,68.0,88,30.17,1.8,South,10.4,21.9,0.00,Rain-Thunderstorm,Heavy Rain,170,2013-07-04 21:03:00
5:10 PM,69.8,69.8,100,30.16,3.0,SSW,9.2,-,0.00,Rain-Thunderstorm,Light Rain,210,2013-07-04 21:10:00
5:31 PM,71.6,69.8,94,30.19,9.0,East,3.5,-,0.02,Rain-Thunderstorm,Light Thunderstorms and Rain,90,2013-07-04 21:31:00
5:41 PM,71.6,69.8,94,30.18,3.0,SE,3.5,-,0.02,Rain-Thunderstorm,Light Thunderstorms and Rain,130,2013-07-04 21:41:00
5:46 PM,71.6,69.8,94,30.17,10.0,Calm,Calm,-,0.03,Rain,Light Rain,0,2013-07-04 21:46:00
5:56 PM,72.0,70.0,93,30.15,1.5,SW,3.5,-,0.03,Rain-Thunderstorm,Heavy Rain,230,2013-07-04 21:56:00
6:30 PM,71.6,69.8,94,30.17,4.0,Calm,Calm,-,0.04,Rain-Thunderstorm,Light Rain,0,2013-07-04 22:30:00
6:44 PM,71.6,69.8,94,30.18,10.0,Calm,Calm,-,0.58,,Mostly Cloudy,0,2013-07-04 22:44:00
6:56 PM,72.0,71.1,97,30.15,10.0,SW,3.5,-,0.58,,Scattered Clouds,230,2013-07-04 22:56:00
7:45 PM,71.6,71.6,100,30.20,2.0,WSW,8.1,-,0.08,Rain,Heavy Rain,240,2013-07-04 23:45:00
7:50 PM,71.6,71.6,100,30.19,1.0,West,8.1,-,0.13,Rain,Heavy Rain,260,2013-07-04 23:50:00
7:56 PM,72.0,70.0,93,30.16,1.5,SSW,4.6,16.1,0.15,Rain-Thunderstorm,Rain,210,2013-07-04 23:56:00
7:59 PM,71.6,71.6,100,30.18,3.0,SW,3.5,16.1,0.01,Rain-Thunderstorm,Heavy Rain,220,2013-07-04 23:59:00
8:21 PM,71.6,71.6,100,30.19,7.0,Calm,Calm,-,0.03,Rain,Light Rain,0,2013-07-05 00:21:00
8:56 PM,71.1,71.1,100,30.17,10.0,ESE,3.5,-,0.03,,Mostly Cloudy,120,2013-07-05 00:56:00
9:56 PM,71.1,71.1,100,30.17,7.0,East,4.6,-,0.09,,Scattered Clouds,100,2013-07-05 01:56:00
10:56 PM,71.1,70.0,96,30.17,5.0,East,3.5,-,N/A,,Partly Cloudy,80,2013-07-05 02:56:00
11:56 PM,71.1,70.0,96,30.20,10.0,Calm,Calm,-,N/A,,Overcast,0,2013-07-05 03:56:00